Location: ?????
(54.9266°N, 38.5527°E)
Time: 13:33:43
(UTC+00:00)

CZ-2C R/B - Pass Details

Date: 14 April 2024
Orbit: 666 x 778 km, 98.4° (Epoch: 17 May)

Event Time Altitude Azimuth Distance (km) Brightness Sun altitude
Rises 00:43:18 0° 18° (NNE) 3,259 6.8 -13.5°
Reaches altitude 10° 00:45:42 10° 24° (NNE) 2,336 6.1 -13.3°
Maximum altitude 00:50:42 49° 99° (E) 1,007 3.4 -12.7°
Drops below altitude 10° 00:55:42 10° 174° (S) 2,327 4.7 -12.1°
Sets 00:58:04 0° 180° (S) 3,245 5.4 -11.9°
Enters shadow 00:58:12 - 180° (S) 3,295 5.4 -11.8°
